Wind_Speed
20 20 20 20 20 21 21 21 21 21 21 22 22 22 22 22 21 21 22 22 23 23 24 24 24 25 25 25 25 25 24 25 27 29 30 29 29 30 30 30 30 31 30 30 30 28 27 28 29 31 32 32 33 33 33 33 34 35 36 38 41 45 44 43 39 35 34 32 29 28 26 23 23 24 21 19 19 19 21 21 19 18 17 16 16 14 11 11
20 20 20 20 20 20 21 21 21 21 22 22 22 22 22 22 22 22 22 23 24 24 25 26 26 26 26 26 26 25 25 27 27 28 29 29 30 31 31 31 31 31 31 31 31 29 28 28 28 28 30 32 33 33 33 34 34 36 38 39 44 46 45 43 39 35 33 33 31 29 27 24 23 24 25 21 19 19 21 22 21 20 19 19 18 16 13 14
19 20 20 19 19 20 20 20 21 21 22 22 22 23 22 22 22 22 23 24 24 25 26 27 27 27 27 27 26 26 27 27 27 28 28 29 31 32 31 32 31 31 32 32 31 30 29 29 29 27 27 31 33 33 34 35 35 37 39 42 45 45 43 42 40 36 34 34 32 31 29 26 23 24 25 24 20 20 22 23 22 21 20 20 19 18 16 16
19 20 20 20 20 20 20 20 21 21 22 23 22 22 21 22 22 22 24 25 25 25 26 27 27 27 27 27 27 26 27 28 28 28 28 30 31 32 32 32 31 31 31 32 31 31 30 29 29 27 25 28 32 33 34 35 35 37 40 44 45 43 42 42 40 37 35 35 32 32 31 26 24 24 24 25 23 22 24 24 23 22 22 20 20 21 20 20
19 19 20 20 20 20 20 21 21 22 22 22 22 22 22 22 23 24 25 26 25 25 26 27 28 28 28 28 27 26 26 26 26 26 27 29 30 31 31 31 31 31 31 31 31 30 29 29 28 27 25 26 30 33 35 35 35 37 40 43 44 42 40 39 39 38 37 36 33 32 30 26 24 25 24 25 25 24 25 26 25 25 25 24 24 24 24 23
19 19 19 20 20 20 21 21 22 22 22 22 22 22 23 24 25 25 26 26 26 26 27 27 27 27 27 26 25 24 23 22 22 24 25 26 26 26 26 27 28 28 28 28 29 29 27 27 27 26 25 25 28 33 35 34 35 38 40 42 42 41 38 35 37 38 38 38 35 33 31 27 24 26 27 26 26 25 25 27 27 27 28 27 27 26 26 25
18 18 19 19 20 20 20 21 21 21 21 21 22 23 24 25 25 25 26 27 27 27 26 25 26 25 25 24 23 22 21 21 22 24 24 24 23 21 22 22 23 23 23 24 24 24 24 23 24 25 25 25 27 31 34 34 35 38 41 41 41 41 36 32 35 37 38 37 35 33 33 31 25 26 29 28 28 28 27 27 28 29 29 28 28 29 28 27
18 18 18 19 19 20 20 20 20 20 21 22 23 24 24 25 25 26 27 27 26 26 25 24 24 24 23 23 22 20 19 19 20 21 22 20 19 18 19 19 19 19 20 21 21 21 21 21 22 23 25 25 26 31 33 34 35 39 42 41 39 38 36 33 33 35 36 36 35 32 32 35 30 24 27 32 30 29 28 28 30 30 29 31 31 31 30 28
17 18 18 19 19 19 19 19 19 20 21 22 23 24 24 25 26 26 26 25 25 24 24 24 23 23 23 21 21 19 17 17 18 19 19 18 17 16 16 15 16 16 17 17 17 18 18 18 19 21 24 24 26 31 33 33 35 38 40 41 39 37 36 35 33 34 35 36 36 33 32 36 35 25 23 32 32 28 28 29 31 31 31 33 32 31 31 30
17 17 18 18 18 18 18 19 19 19 21 22 22 23 24 25 25 25 24 23 23 23 23 23 22 22 22 20 19 17 15 16 16 16 18 18 16 15 13 12 12 13 13 14 14 15 15 16 17 19 22 23 26 29 32 34 35 36 39 41 41 36 36 36 34 35 35 36 36 34 34 34 35 31 23 26 31 30 29 30 32 32 33 33 30 31 32 32
17 17 17 18 18 18 17 17 18 19 20 21 21 23 24 24 23 22 22 22 22 22 22 22 22 21 20 18 16 16 15 15 15 16 18 18 15 12 11 10 11 11 11 12 13 13 14 14 15 17 19 20 25 28 30 34 35 35 36 40 42 37 36 37 35 37 37 36 37 36 35 33 34 34 28 24 27 30 30 31 33 34 33 33 32 32 33 32
16 17 17 17 17 17 17 17 17 19 19 20 21 23 23 22 21 21 22 22 22 22 22 23 22 21 20 17 15 16 15 14 15 16 17 17 14 12 10 10 11 11 11 11 11 12 13 14 14 16 16 16 21 25 26 32 35 33 30 33 40 37 35 37 35 37 38 38 38 37 32 29 32 30 27 26 25 28 30 30 33 33 33 33 35 34 33 33
16 16 16 17 17 16 16 17 18 18 19 20 22 22 21 19 20 21 21 21 21 20 21 21 21 20 18 16 15 16 14 12 13 15 17 16 15 12 11 11 12 12 12 11 11 11 12 13 14 16 16 16 20 20 22 28 33 33 26 26 33 34 36 38 37 37 39 40 38 36 27 21 29 28 25 26 25 28 29 30 32 32 34 35 36 36 35 35
16 16 16 16 16 16 16 17 18 18 19 20 21 19 17 18 19 20 19 19 18 18 19 18 18 17 16 15 14 13 11 11 14 16 17 16 15 14 13 13 13 13 12 12 11 11 11 11 13 15 16 18 19 20 22 23 28 32 26 24 30 33 38 40 39 35 36 39 39 38 26 17 26 31 28 27 26 28 29 30 33 32 33 35 36 37 37 37
16 16 16 15 15 15 16 17 17 17 18 19 18 16 16 18 18 18 17 16 15 16 17 17 16 16 14 12 12 11 12 14 16 18 17 16 16 16 16 15 14 14 13 13 12 12 11 11 12 14 16 17 18 20 23 19 22 31 27 23 31 35 37 39 39 36 33 36 38 37 28 20 27 32 30 29 27 28 28 27 31 34 35 35 37 38 37 37
16 16 15 15 14 14 15 16 17 17 18 17 15 14 16 18 18 17 15 14 15 15 16 15 15 14 12 10 10 11 14 15 18 19 18 18 18 18 18 17 17 16 15 15 14 13 13 12 12 13 16 17 18 20 22 19 19 31 30 22 31 38 35 35 38 39 34 34 37 36 30 24 27 32 32 32 30 29 30 25 24 33 39 38 37 38 38 37
16 16 15 14 14 14 15 16 17 17 16 15 14 14 16 17 16 15 13 13 14 15 16 14 13 12 10 9 9 11 14 16 18 19 19 19 19 19 19 19 18 18 17 16 15 15 14 14 14 15 17 17 19 19 18 19 18 29 35 23 26 37 36 35 37 39 36 34 35 36 33 28 27 32 32 32 33 33 33 30 24 28 34 35 37 41 40 38
17 16 15 14 13 14 15 16 16 16 15 14 14 15 16 16 16 14 12 12 13 16 18 14 12 11 8 8 9 11 14 15 17 18 18 19 19 20 20 19 19 18 18 17 16 16 15 16 16 16 18 19 21 21 19 21 18 25 36 27 23 33 37 36 35 38 40 37 34 34 34 31 29 31 33 30 31 34 34 34 30 26 30 35 37 37 36 37
17 16 15 14 13 14 15 15 15 15 14 14 14 15 16 15 16 15 12 12 14 18 19 16 14 11 8 10 11 13 14 14 16 17 18 19 19 20 20 19 18 18 19 18 18 18 17 17 18 20 21 22 23 25 25 24 18 18 29 30 23 28 35 36 35 38 42 39 31 30 32 32 32 31 32 30 29 32 33 34 33 27 30 35 34 31 30 33
16 15 15 14 14 14 15 14 13 13 14 15 15 16 16 16 16 15 13 13 14 17 20 18 15 11 10 11 12 12 13 14 15 17 18 19 19 19 19 19 18 19 20 19 18 19 18 18 22 24 23 22 23 26 26 25 22 16 20 29 25 24 31 34 36 38 41 37 27 26 31 30 32 32 31 31 29 31 33 33 33 30 30 30 29 30 29 27
16 15 14 14 14 15 15 13 11 12 14 15 16 17 17 17 16 15 13 13 13 16 20 19 16 13 10 10 11 11 11 12 14 16 18 19 20 20 20 20 19 20 20 19 19 19 19 22 25 25 22 21 22 24 25 27 30 20 16 30 28 24 32 33 35 38 38 35 27 28 32 28 29 32 31 33 32 31 33 33 33 33 33 32 30 28 27 25
15 15 14 14 14 15 15 12 11 13 14 15 16 16 17 16 14 13 12 12 12 15 20 19 16 13 11 11 11 10 11 11 11 14 17 18 19 20 21 22 21 20 19 18 19 18 19 25 26 23 21 21 22 24 25 28 34 27 17 27 26 22 35 33 33 39 37 35 30 30 34 29 28 30 29 31 32 32 33 34 34 33 34 36 34 30 28 28
15 15 14 14 14 15 15 11 11 13 15 17 16 16 18 16 13 12 11 11 10 13 19 18 15 13 11 11 11 11 12 11 10 12 16 16 16 17 18 20 19 18 18 18 19 19 20 24 23 22 21 21 23 24 25 27 32 31 19 19 20 22 36 33 32 36 36 35 33 33 34 32 30 29 29 30 29 30 31 33 35 35 34 33 33 32 30 30
14 14 14 15 15 15 14 11 11 13 15 18 17 17 18 16 13 12 12 11 9 12 18 18 15 14 13 13 13 13 13 11 9 11 13 14 14 15 16 16 17 17 18 17 18 21 22 21 17 18 20 22 22 22 25 26 31 34 25 16 16 21 31 34 35 35 34 32 34 36 30 25 27 28 29 30 29 30 30 30 32 32 33 31 30 30 29 28
14 14 15 15 15 15 14 11 11 13 15 18 18 17 17 17 13 11 13 11 7 11 18 17 14 13 13 15 15 15 14 10 9 10 12 11 11 13 13 14 17 17 17 16 17 21 24 21 15 12 16 21 22 22 24 25 30 34 27 18 15 17 26 36 38 37 35 30 33 36 21 10 19 26 27 31 31 31 31 30 30 28 28 28 27 28 27 24
13 13 14 15 15 15 13 11 11 13 15 17 17 16 16 18 14 11 14 9 5 12 19 17 13 13 15 17 16 14 13 9 8 9 10 9 10 12 12 14 16 16 15 15 16 20 21 20 18 12 10 17 21 22 22 23 28 28 21 20 17 15 23 35 39 37 34 31 33 34 19 6 14 23 25 29 30 31 32 31 32 31 29 28 29 31 29 27
13 13 13 14 15 15 13 12 12 13 14 16 17 16 15 17 14 12 12 5 4 15 19 17 15 15 19 19 15 12 10 8 8 9 10 11 11 11 13 14 15 15 14 14 14 19 19 17 21 17 10 14 20 22 21 20 26 27 19 20 20 18 21 31 37 34 31 32 30 29 25 13 13 20 23 25 28 30 32 32 32 33 31 31 32 33 33 33
12 12 12 13 14 14 13 13 13 14 14 15 18 16 14 15 14 13 8 1 7 18 19 18 16 16 21 20 14 11 10 10 10 10 9 11 12 13 15 15 15 15 15 16 17 18 16 13 20 20 13 15 22 22 19 20 28 29 16 16 24 24 21 27 31 29 31 30 19 19 24 12 9 20 23 23 26 28 31 32 32 32 31 31 32 32 33 33
12 12 12 12 13 14 13 12 13 15 15 15 16 15 13 13 15 14 5 0 11 20 19 18 17 19 22 19 14 11 8 8 11 10 7 9 11 13 16 15 15 16 15 17 17 14 10 10 15 20 16 16 20 19 17 22 31 27 13 13 25 25 21 21 21 23 29 22 11 16 21 8 5 21 27 26 28 29 30 31 31 31 31 31 31 31 31 30
13 12 12 12 12 13 13 11 12 14 16 16 14 15 13 11 13 10 0 4 16 19 19 18 17 21 21 18 16 11 5 7 9 9 7 8 10 11 12 11 10 13 13 12 13 12 8 8 14 20 18 13 15 16 17 24 31 28 15 15 25 24 23 18 14 20 20 10 7 15 19 10 3 17 30 31 30 30 28 28 29 30 30 29 28 27 27 27
13 12 11 11 11 12 12 11 11 13 16 17 13 13 12 8 10 6 1 10 18 18 19 16 16 20 19 18 17 9 5 9 7 7 8 9 12 10 10 9 7 9 10 9 11 13 10 7 12 18 16 11 13 17 19 24 32 30 19 17 23 18 18 16 11 14 8 2 7 11 13 11 3 10 24 29 28 27 27 26 26 28 28 27 26 26 26 26
14 12 11 11 11 11 12 11 12 12 14 17 14 12 10 6 7 6 6 13 15 17 21 17 17 20 18 18 16 9 7 8 4 2 5 9 12 12 11 10 10 10 8 11 10 12 13 9 9 14 14 13 15 17 20 23 32 30 20 19 20 8 9 8 3 5 2 2 8 10 10 8 5 7 14 23 26 24 24 24 23 23 24 23 23 23 22 20
14 13 12 12 11 11 12 12 12 11 12 16 15 12 8 4 5 8 11 14 13 17 20 17 17 19 20 20 16 8 8 8 5 3 5 9 11 15 13 11 12 9 6 10 11 9 11 8 11 15 14 15 17 19 22 25 31 29 20 19 15 2 4 5 1 2 1 3 10 13 10 4 6 8 11 19 24 21 20 21 22 21 20 20 20 18 17 15
14 13 12 12 12 11 11 11 12 11 11 14 15 13 8 4 5 9 13 15 16 17 16 16 17 17 20 23 19 10 7 8 6 5 6 7 9 11 11 10 12 10 5 8 10 9 8 5 13 18 14 17 20 20 25 27 29 28 20 15 10 3 4 4 2 2 2 6 11 13 9 4 8 11 12 18 23 23 22 22 23 23 21 19 17 16 15 15
14 13 12 13 12 11 10 10 11 11 11 12 14 14 9 5 7 10 13 16 18 18 15 15 18 19 21 23 22 14 8 8 7 7 7 6 5 5 6 8 11 11 7 8 10 12 9 4 13 18 13 18 22 21 25 24 22 23 20 13 4 2 5 7 5 6 9 9 7 8 7 8 11 14 15 17 21 24 24 24 24 22 21 20 18 18 18 19
14 13 12 12 12 11 10 10 10 10 10 11 12 13 10 7 8 10 13 15 17 19 17 16 18 21 22 24 24 20 12 9 8 7 8 8 7 6 5 6 10 13 10 10 11 11 6 5 13 17 15 20 22 22 26 21 15 18 19 11 2 2 5 10 11 11 13 6 1 4 5 8 9 12 17 20 22 25 26 26 25 23 22 22 21 21 22 22
14 13 12 12 11 11 10 10 9 9 9 9 10 11 10 9 10 10 12 14 15 17 18 17 18 21 22 24 26 24 18 13 10 7 8 9 8 7 7 5 7 10 11 11 10 7 7 12 14 15 17 21 21 20 22 16 11 15 16 10 5 6 8 9 8 7 7 2 2 3 5 8 7 10 19 25 25 26 27 26 25 25 25 26 25 26 26 25
14 13 12 11 10 10 10 9 8 8 8 8 8 9 9 9 10 10 11 13 13 14 16 17 17 19 21 22 24 25 23 19 14 10 10 9 7 6 5 4 6 8 12 11 7 9 14 14 11 15 19 20 20 19 15 12 13 14 13 10 8 7 8 12 9 4 4 2 1 2 5 11 16 17 21 27 26 25 26 26 26 26 27 29 30 29 29 28
13 13 12 11 9 9 9 8 8 8 7 6 6 7 8 8 9 10 11 13 13 13 15 17 17 18 20 20 22 24 25 24 20 14 12 10 8 7 7 6 6 8 12 12 13 17 16 11 9 17 21 18 20 20 13 13 14 13 12 12 8 6 10 14 11 7 7 3 0 1 3 10 23 23 21 23 23 23 24 25 25 27 28 29 29 30 29 27
11 12 12 11 9 8 8 8 8 7 6 6 6 6 7 8 9 10 11 12 12 13 15 16 17 17 18 17 19 22 23 23 22 20 16 12 9 9 11 12 11 12 15 16 18 16 14 13 15 19 20 17 19 19 14 13 13 12 16 13 5 7 15 14 9 10 10 5 3 3 1 9 19 21 20 21 21 24 24 22 23 25 26 28 28 29 28 26
12 11 12 11 10 8 8 7 7 6 6 7 6 5 6 7 8 9 10 11 12 12 13 14 16 17 17 17 17 19 21 22 22 21 20 17 13 11 12 14 15 18 19 18 16 13 13 19 23 22 20 16 15 14 11 10 12 13 16 12 4 11 19 12 5 8 9 6 7 6 3 9 14 15 19 23 24 26 25 22 22 24 25 27 27 27 27 26
13 12 11 11 10 9 7 7 6 6 7 6 5 5 5 6 8 9 9 10 11 12 13 13 14 15 16 17 17 17 19 21 21 21 21 21 18 14 13 14 15 18 18 16 14 15 17 21 23 20 18 16 12 10 8 9 12 13 15 11 6 13 18 8 2 11 11 8 10 7 2 9 15 17 21 26 27 27 25 24 23 24 25 26 26 27 28 28
13 12 12 11 10 10 8 7 7 6 5 6 5 5 5 5 6 7 9 10 10 11 12 13 14 14 14 16 16 16 17 18 20 20 20 21 19 16 14 14 14 15 16 15 17 21 22 21 20 17 13 11 9 8 9 10 11 12 15 14 8 14 15 3 2 14 16 11 9 5 1 9 18 22 24 27 29 28 28 28 25 24 25 26 26 28 28 29
13 13 12 11 11 10 9 8 7 6 5 5 6 6 6 5 5 6 7 8 9 10 10 11 12 13 13 14 15 15 15 15 16 17 18 19 18 14 11 10 11 13 14 15 20 22 18 19 22 17 8 4 3 5 8 11 12 11 14 14 10 13 15 5 2 13 14 10 11 7 3 7 15 24 27 28 30 31 32 31 29 27 26 25 26 27 27 28
14 13 13 12 11 10 9 8 7 6 6 5 5 6 6 5 5 5 6 7 8 9 9 10 11 11 12 14 14 13 14 13 12 13 15 16 16 14 11 8 8 10 13 16 19 16 14 18 21 13 4 2 4 5 8 14 15 13 14 15 12 14 14 7 7 14 11 10 13 10 5 6 11 21 27 27 28 30 31 32 31 30 28 27 26 26 28 29
14 13 13 13 11 10 9 8 7 7 7 6 5 5 5 5 5 5 6 6 6 7 8 9 10 10 11 11 11 11 12 12 11 11 12 14 15 15 13 11 9 10 12 14 11 11 17 19 15 10 6 4 6 8 12 17 18 15 15 16 14 14 14 9 8 10 9 10 15 13 9 8 9 16 24 26 26 26 28 30 30 30 30 29 29 29 29 29
13 13 13 13 11 10 10 9 7 7 7 6 6 5 5 5 5 5 5 5 6 6 6 7 8 9 10 9 9 9 9 10 10 9 11 12 13 15 14 12 10 9 9 6 5 11 18 16 9 9 8 5 5 8 13 17 17 15 14 14 13 13 13 12 10 9 8 8 11 13 12 11 9 11 17 21 21 21 23 24 24 26 27 28 29 30 30 30
13 12 13 12 11 11 12 11 9 8 7 6 7 6 6 5 5 6 5 5 5 5 4 5 6 7 8 8 9 9 7 7 9 9 8 9 10 12 13 12 10 8 5 4 7 12 13 9 6 6 7 6 6 8 12 16 15 13 11 12 13 13 13 13 12 12 12 10 10 11 12 13 11 9 12 14 15 16 17 17 19 20 23 25 28 29 29 30
14 13 12 12 12 12 12 12 11 10 8 7 6 7 6 6 5 5 5 6 6 5 4 4 4 4 5 6 7 8 7 7 8 8 7 6 7 8 10 10 10 9 7 6 9 11 8 5 4 5 6 7 6 8 12 13 12 11 11 11 13 13 13 13 13 13 12 12 12 11 11 11 12 12 13 14 15 16 17 18 20 22 23 24 26 27 27 27
14 14 13 12 12 12 13 13 12 12 10 9 7 7 7 7 6 5 6 6 6 5 5 5 4 4 4 4 4 6 6 6 7 7 7 6 6 6 6 7 6 7 8 7 8 10 10 7 5 5 6 6 5 7 9 10 10 11 12 12 13 14 14 14 14 14 14 14 14 14 13 13 14 15 16 17 18 20 22 23 23 23 24 24 25 25 26 26
14 13 13 13 12 12 13 13 13 13 12 10 9 8 7 7 6 6 6 6 6 6 5 5 5 5 4 3 3 3 3 4 4 5 6 6 5 5 5 5 4 3 3 4 6 8 9 9 9 8 8 8 7 7 8 9 11 13 16 17 16 16 16 16 17 17 17 16 16 17 17 15 14 15 16 17 18 19 22 23 24 24 24 25 25 24 24 24
15 14 13 13 12 12 12 13 13 13 13 12 11 9 8 8 7 6 6 5 6 6 6 5 5 5 5 4 3 2 1 2 3 3 3 3 3 3 3 3 4 3 2 1 2 4 7 10 10 8 7 8 9 8 8 7 7 11 17 19 19 18 18 18 19 19 19 19 19 19 17 14 14 15 15 15 16 17 18 19 20 21 22 22 23 23 23 23
Wind_Direction
297 295 295 294 293 293 292 291 291 291 291 292 293 293 292 291 289 288 287 287 288 288 288 288 286 285 284 283 282 283 283 280 280 281 280 280 279 278 276 274 272 271 270 269 268 267 265 261 252 243 239 237 235 232 231 230 226 224 222 221 225 228 230 232 233 228 230 233 229 228 224 221 224 222 224 218 212 213 212 215 221 224 225 223 220 216 206 203
298 297 296 296 296 295 294 294 294 294 295 295 295 294 292 291 289 288 287 287 288 289 289 288 287 286 284 283 282 282 281 280 280 279 279 278 277 275 274 273 271 270 269 268 267 266 265 263 258 247 239 237 235 232 230 230 226 224 222 222 226 230 231 232 234 231 232 235 233 231 229 224 223 223 225 222 215 214 212 214 218 219 221 222 220 213 202 201
301 300 300 300 300 298 298 297 297 298 297 297 296 295 293 292 291 290 289 289 289 290 290 289 288 287 285 285 284 283 282 281 279 277 276 275 274 272 271 270 268 268 267 267 266 264 263 262 261 253 242 237 235 232 229 229 227 225 223 224 228 230 231 232 233 232 232 236 236 233 232 229 224 224 226 223 218 216 213 213 215 214 214 217 219 213 203 200
305 305 305 305 304 302 301 301 300 300 300 300 298 297 295 294 293 292 291 291 291 291 290 290 289 288 287 287 286 286 284 281 278 276 274 271 270 269 268 267 266 266 266 266 266 264 262 260 260 257 246 238 236 233 229 227 227 226 224 226 229 229 230 231 231 231 231 235 237 233 231 233 228 224 226 221 217 217 214 212 213 214 212 210 214 209 201 195
309 309 309 309 307 306 305 304 304 304 304 303 301 300 299 298 297 296 295 295 295 294 292 291 290 290 289 289 288 287 285 283 280 276 271 268 267 267 266 267 267 267 266 265 265 263 261 258 258 257 250 239 235 233 229 226 225 226 226 226 228 227 228 229 229 229 230 232 235 233 229 230 228 221 221 219 216 215 212 211 211 212 211 207 206 204 200 197
312 312 312 311 310 310 309 309 309 309 308 307 305 304 303 302 302 301 300 299 298 297 294 292 291 290 290 290 289 287 284 282 279 275 272 271 270 269 268 267 267 266 265 263 262 262 259 257 256 255 252 243 236 233 229 225 223 225 226 225 226 227 227 226 226 227 229 231 233 234 229 226 223 218 217 215 215 215 210 209 209 212 211 207 205 203 202 201
314 315 314 314 314 313 313 313 313 312 311 310 308 307 307 306 306 305 303 301 300 298 296 294 292 291 291 291 290 287 284 281 277 274 272 271 268 265 263 261 261 260 259 260 260 260 259 257 256 254 251 245 238 234 230 226 222 224 225 224 224 225 225 224 224 224 226 229 232 234 232 228 219 214 215 214 212 211 211 209 210 213 210 208 206 204 202 200
318 318 317 317 317 317 317 317 316 316 314 312 311 310 310 309 308 306 304 303 301 300 298 296 294 294 294 293 291 289 286 282 274 268 266 262 256 253 252 253 256 257 257 259 260 262 262 260 259 255 250 244 238 234 230 226 223 224 224 222 221 221 222 222 220 222 223 224 227 229 231 230 221 213 213 213 212 207 207 209 210 212 209 208 206 202 202 200
320 321 321 321 321 321 321 320 319 319 317 315 314 313 312 310 309 307 305 303 303 302 300 299 298 297 297 296 294 291 287 278 266 258 255 247 241 243 246 251 254 255 256 257 259 263 264 264 262 258 252 244 238 234 229 224 222 223 224 221 219 217 219 222 218 218 221 221 224 224 227 230 225 219 212 210 214 210 206 209 210 212 209 207 203 200 202 202
322 325 325 324 324 324 323 323 323 321 319 317 316 314 313 311 309 308 306 305 304 303 301 301 300 299 298 298 297 293 283 270 260 248 241 236 234 237 240 246 248 249 250 250 253 256 260 263 261 259 255 247 238 234 230 224 220 219 221 220 217 214 215 219 217 215 218 219 221 222 225 230 228 228 221 206 211 214 210 209 208 209 209 207 202 200 203 203
326 328 327 327 327 326 326 326 325 322 320 318 316 315 315 313 312 311 309 308 307 305 303 302 302 301 301 302 300 289 273 262 252 237 228 227 227 228 231 240 244 245 246 247 249 250 254 257 258 258 255 250 239 233 231 226 220 216 219 220 217 212 211 215 216 214 216 216 218 219 223 227 228 230 227 212 206 208 209 209 208 206 207 208 204 203 205 205
328 331 331 331 330 330 330 327 325 323 320 319 319 320 319 317 315 313 312 311 310 307 307 307 306 306 305 306 298 284 276 268 255 233 222 221 221 221 226 235 240 243 245 248 250 249 253 254 256 254 249 246 238 231 229 227 221 214 215 219 216 211 209 211 212 213 214 216 217 216 219 221 221 224 224 219 210 206 209 210 209 208 207 207 206 206 208 207
332 335 336 335 335 333 331 328 326 324 323 324 324 324 321 318 315 313 313 312 311 310 310 310 309 308 305 301 290 282 283 277 256 233 223 221 218 220 226 231 235 240 242 245 249 249 254 254 254 253 246 241 234 228 225 225 221 212 207 216 215 211 210 208 208 210 210 214 217 214 213 211 211 216 217 215 215 213 212 210 210 211 209 208 209 208 208 209
336 338 340 340 338 335 332 328 327 327 328 327 326 325 322 319 316 313 313 312 312 314 314 313 310 307 302 292 283 280 276 262 245 232 228 226 223 226 229 232 235 239 241 246 251 251 253 255 253 251 247 240 232 226 223 222 221 209 202 211 212 212 212 206 205 208 207 209 214 213 204 180 190 207 213 208 209 213 214 213 213 212 210 211 212 209 206 207
339 341 344 343 340 336 330 327 328 331 331 329 328 327 325 323 318 316 317 316 319 321 320 318 314 310 303 288 277 268 257 247 239 235 233 231 231 233 234 237 239 242 245 248 252 252 253 254 252 247 243 237 228 224 220 219 217 204 201 213 209 210 212 206 204 207 206 205 209 209 194 163 175 192 202 202 200 207 211 213 214 215 213 212 210 206 204 205
341 344 346 346 341 335 328 327 332 334 334 333 332 331 327 325 322 321 321 320 324 329 327 322 317 313 307 293 276 260 250 246 243 241 240 237 238 239 240 242 243 246 247 249 252 253 255 253 252 245 238 233 224 221 218 219 218 201 201 216 209 207 208 204 204 204 207 205 204 206 192 171 176 182 188 195 198 205 211 215 218 213 209 208 208 206 205 205
344 346 348 347 341 334 329 331 336 337 338 337 334 332 327 326 328 328 325 321 327 334 333 328 323 318 311 299 282 260 251 249 249 249 246 243 243 244 247 248 248 251 250 253 254 253 257 252 251 244 233 231 222 220 218 220 225 204 202 214 209 206 203 200 200 201 207 207 198 199 196 185 180 181 183 189 197 205 211 216 218 208 205 209 206 201 204 208
347 348 349 348 342 335 332 336 339 339 341 339 335 331 326 330 337 334 326 322 328 337 339 334 330 327 316 300 285 268 258 253 253 254 253 249 248 247 249 250 251 254 253 254 254 252 255 250 249 244 232 228 220 218 215 210 220 210 207 212 203 203 202 197 197 197 203 208 198 192 193 190 186 183 183 184 191 202 210 215 218 215 210 207 199 195 203 211
350 350 351 348 342 337 337 340 341 340 341 340 336 331 330 336 341 337 327 322 328 340 343 338 331 326 311 299 288 280 272 262 256 256 256 253 250 248 249 250 250 252 252 252 253 251 253 250 247 243 234 230 221 219 216 208 212 210 212 217 204 199 201 196 195 196 201 205 197 192 190 188 187 182 183 184 185 197 207 211 215 213 206 200 199 204 206 202
352 352 351 347 343 341 341 343 344 344 342 339 336 334 334 336 340 340 331 322 325 336 341 339 333 320 306 303 294 288 281 270 261 255 255 254 252 250 248 249 249 250 252 253 255 254 253 251 246 245 242 235 225 221 218 212 213 209 209 216 210 199 200 197 195 197 202 199 181 185 191 184 184 181 183 189 189 198 205 207 208 207 204 201 201 205 203 196
355 355 351 346 343 343 344 344 346 347 343 339 335 335 338 337 337 338 334 329 326 332 338 339 336 323 308 304 297 294 289 279 269 258 252 251 251 251 250 249 248 249 253 254 253 253 248 246 247 248 244 235 227 222 218 215 219 225 212 211 215 205 195 194 193 194 203 199 168 173 191 184 184 186 186 192 194 198 203 204 204 205 208 208 201 200 202 203
358 356 352 347 345 347 348 344 344 346 343 339 335 337 340 336 333 331 331 333 329 330 335 335 335 330 317 305 294 294 297 287 275 263 256 252 250 251 251 251 252 251 251 249 245 244 241 243 247 244 237 233 227 223 221 218 224 233 218 213 224 197 178 179 184 187 198 198 171 171 191 187 182 188 188 190 192 195 201 203 203 205 210 210 209 209 207 206
359 358 354 349 348 351 349 343 341 343 342 340 339 341 341 336 332 327 326 331 327 330 333 332 335 337 331 318 299 294 297 290 276 264 260 257 250 248 250 250 253 249 244 241 237 235 236 242 244 235 230 230 226 223 223 222 229 232 221 223 231 184 167 168 170 178 190 196 185 178 185 183 179 185 187 188 189 192 198 202 202 203 203 204 208 209 206 208
360 359 355 351 353 354 350 344 338 338 341 342 342 342 342 339 333 324 324 324 318 331 336 334 335 337 338 332 317 305 300 292 272 260 260 260 251 246 246 244 245 243 240 240 238 237 238 240 242 234 227 225 225 225 224 225 230 231 227 228 220 188 175 170 170 176 178 186 194 186 175 171 175 182 185 187 189 191 194 197 199 199 199 203 207 208 208 210
1 360 356 353 355 354 352 346 334 336 342 345 344 340 340 341 334 324 329 320 300 331 339 338 337 337 336 331 320 307 300 293 269 257 261 260 251 243 241 238 238 238 239 239 241 243 242 237 236 238 228 223 225 223 222 226 228 232 232 213 203 204 187 172 173 174 160 161 184 183 169 156 178 184 187 189 190 192 196 199 203 205 206 212 216 215 214 211
4 1 357 354 355 355 353 344 334 338 343 347 345 338 338 342 336 326 331 319 287 332 339 340 341 338 336 328 316 304 298 293 268 258 258 251 247 241 237 236 236 237 238 240 245 247 245 234 228 236 234 223 223 221 219 223 226 233 226 195 198 223 196 175 174 172 155 154 171 178 176 161 180 191 194 194 195 198 204 208 214 218 219 223 228 229 228 223
6 2 358 354 354 354 351 343 338 338 342 349 348 342 340 344 342 329 330 329 315 334 340 344 342 338 338 331 316 302 294 294 282 265 252 243 243 239 236 237 237 236 234 234 240 246 246 233 222 225 226 219 220 218 214 214 221 225 214 192 200 216 197 178 175 173 164 163 168 178 186 176 176 194 198 199 201 203 208 213 219 223 225 227 230 231 232 229
7 5 0 356 354 354 350 343 338 337 342 349 351 348 338 341 347 335 328 28 337 336 340 342 340 337 337 334 324 305 287 286 288 275 251 240 239 239 239 239 239 240 239 238 241 246 245 230 220 219 218 216 212 210 208 208 211 212 210 200 201 207 196 172 170 173 168 164 161 174 183 177 178 193 199 204 205 206 208 213 219 222 224 226 227 228 228 229
10 7 4 0 356 353 349 343 338 340 344 347 351 351 338 335 344 335 318 345 330 335 341 340 340 339 334 333 336 325 295 287 289 277 258 242 237 241 243 243 245 241 243 247 243 242 235 220 215 216 222 220 205 200 203 205 204 203 208 196 191 200 198 173 165 170 166 160 151 162 172 171 189 195 197 203 209 212 211 211 217 221 224 227 228 228 229 230
13 11 8 5 358 352 349 344 339 343 347 346 347 353 346 335 341 342 25 335 330 338 347 345 343 342 337 336 342 341 328 326 303 270 258 242 227 237 246 251 250 236 237 244 230 219 212 204 207 212 222 220 200 194 197 203 202 203 213 188 176 187 197 194 175 158 154 152 150 161 168 162 188 204 203 207 215 219 217 216 218 220 223 228 232 234 235 236
14 14 12 8 1 353 349 345 340 342 348 348 345 354 353 340 352 16 55 336 335 343 353 357 355 350 347 345 348 0 13 348 323 269 257 227 208 222 238 239 223 206 219 230 221 215 208 206 209 209 212 203 194 193 195 204 204 208 222 184 162 167 182 196 192 154 136 99 154 163 168 160 167 212 207 211 215 218 223 226 223 221 223 228 233 236 236 235
12 14 14 11 5 354 347 347 347 343 346 348 349 355 354 347 3 12 348 342 345 349 355 6 7 359 358 357 357 18 28 5 356 275 231 195 195 209 222 229 199 176 201 214 211 212 209 217 211 203 202 191 189 192 193 201 203 213 224 177 153 142 157 177 206 155 100 74 154 168 168 170 203 209 205 209 210 213 220 222 222 223 225 227 230 233 232 229
10 13 15 12 7 359 348 347 350 347 347 349 353 359 359 358 0 351 352 359 0 357 1 13 17 8 4 7 11 22 30 30 55 108 151 171 193 206 216 231 205 190 219 205 192 194 200 217 205 195 198 188 186 189 188 195 201 212 219 180 159 115 137 152 88 107 94 123 156 168 163 166 210 203 199 203 208 213 214 213 213 213 215 218 222 224 222 218
7 11 15 13 9 3 351 345 348 350 351 350 356 12 24 18 352 353 3 11 14 12 9 16 26 23 16 16 17 17 30 39 55 103 137 166 189 201 216 230 212 214 231 182 179 182 176 205 201 191 190 184 182 184 186 193 200 210 221 202 177 108 114 156 188 153 119 127 149 164 169 191 205 201 196 196 206 211 209 209 208 205 203 203 204 205 205 203
4 10 16 14 10 2 353 348 346 350 357 352 358 18 33 20 351 359 10 15 20 24 22 22 27 30 29 26 21 18 26 30 45 85 104 122 143 176 205 219 204 201 196 169 180 190 180 185 189 184 187 181 176 179 186 192 200 209 223 226 208 79 98 101 100 116 111 110 139 165 187 216 213 210 202 196 204 207 206 207 206 205 202 199 199 199 196 189
2 10 17 15 9 2 357 352 346 351 358 354 2 18 25 20 7 8 15 16 18 22 27 30 27 27 30 31 28 27 30 29 41 66 72 71 68 87 135 183 191 190 193 183 186 196 180 143 169 178 183 177 173 177 184 190 200 202 210 219 198 139 137 104 91 108 113 103 156 178 209 225 216 216 210 204 205 204 205 207 205 205 205 202 197 188 183 181
0 9 18 16 9 3 360 352 348 359 356 345 3 18 16 16 16 17 20 19 18 19 22 25 24 23 23 28 31 32 34 40 41 46 56 55 44 63 105 154 184 187 196 196 196 194 143 136 158 172 171 168 170 177 183 194 205 190 195 205 163 140 147 129 106 106 115 109 243 205 242 233 209 214 211 206 206 204 203 203 201 201 200 195 186 179 180 185
360 7 16 14 8 4 360 350 352 8 358 343 358 10 7 11 17 21 23 22 19 16 18 20 23 24 22 25 30 32 36 42 43 51 57 49 43 66 101 147 176 189 199 195 173 144 135 132 148 166 163 160 167 177 190 209 207 191 189 188 164 150 147 143 135 130 133 108 265 239 269 240 220 217 211 204 202 201 199 195 194 193 190 186 184 184 188 193
360 6 14 11 6 5 359 353 0 3 353 355 4 1 5 14 18 22 24 23 21 18 20 23 24 27 28 28 30 32 37 39 41 51 52 42 44 54 78 113 139 169 178 160 133 134 140 129 133 159 161 156 164 178 200 209 202 198 186 168 156 155 156 152 145 143 148 127 216 207 321 249 227 224 219 207 198 196 194 188 188 190 189 190 190 192 194 197
358 4 11 7 3 4 359 358 6 358 346 6 15 0 4 9 11 17 17 15 17 17 19 24 27 31 34 34 34 36 39 40 42 47 48 48 51 52 71 96 110 125 135 130 126 136 147 138 136 155 163 157 164 184 205 195 186 189 180 172 162 142 146 148 144 148 157 152 148 151 293 245 227 225 222 212 200 195 192 188 192 196 196 196 195 196 197 200
356 1 7 4 359 359 358 359 4 360 355 2 4 358 360 359 360 7 6 5 10 13 15 21 28 34 37 38 40 42 43 44 45 46 47 50 54 60 77 95 108 120 124 122 125 136 144 141 138 148 161 161 168 194 212 188 177 185 182 179 182 158 150 140 146 169 168 166 163 157 226 225 207 199 198 199 199 196 193 196 201 203 203 201 199 198 199 202
353 356 359 359 359 357 355 0 5 4 359 351 346 355 358 356 359 1 1 3 8 13 17 21 27 34 41 44 46 48 49 48 49 51 50 49 53 63 82 103 115 125 129 126 133 142 141 137 131 133 153 168 180 198 212 196 187 191 192 193 192 174 164 141 179 187 170 165 174 161 198 212 193 180 179 185 192 195 198 206 209 209 208 206 202 201 201 205
352 352 352 350 353 355 355 2 6 1 357 349 343 349 352 356 2 360 1 5 6 10 17 21 25 30 38 45 48 50 53 53 52 55 56 54 55 61 81 107 121 132 135 131 137 141 140 138 129 119 136 169 190 205 214 215 207 200 203 210 205 187 186 197 255 190 173 165 172 155 207 220 200 193 190 188 192 197 201 207 211 214 213 209 206 206 206 210
351 348 348 344 343 350 355 358 359 355 354 352 344 340 342 350 357 357 0 1 0 6 13 18 24 28 34 41 46 50 55 57 55 57 62 64 63 65 79 101 123 139 142 137 141 144 145 149 146 134 125 146 191 221 219 215 214 211 212 220 219 202 206 244 213 179 175 176 179 173 222 235 211 204 201 198 201 203 205 208 210 212 215 214 212 211 213 216
350 347 347 344 339 344 352 353 353 351 351 348 341 333 331 338 350 357 2 2 3 8 11 14 22 28 32 34 37 43 52 59 60 59 63 69 72 76 82 90 119 142 145 145 149 154 157 157 156 153 144 154 178 201 202 198 201 207 211 219 224 212 212 224 180 176 186 196 191 192 225 242 218 207 205 206 210 211 211 212 211 211 213 215 215 217 220 222
347 346 346 345 340 340 346 349 346 347 349 343 334 327 322 328 340 348 354 1 8 14 16 17 22 28 29 29 32 39 47 56 65 68 70 73 75 81 88 94 109 129 138 144 156 170 167 162 165 178 191 203 199 190 186 187 191 198 204 213 217 207 207 217 200 195 208 205 202 212 229 235 223 211 210 212 215 216 215 215 215 214 214 213 214 218 222 225
346 346 346 345 341 337 341 342 339 344 350 343 331 324 324 328 331 337 344 350 1 15 21 21 25 29 32 34 37 38 42 50 58 64 72 78 79 82 87 94 108 126 138 147 159 167 169 168 176 196 209 227 220 199 189 187 192 197 201 206 206 201 206 213 214 220 227 217 221 235 239 238 235 219 215 217 220 222 222 222 223 223 223 221 219 219 221 223
343 343 344 342 337 335 337 337 335 338 345 343 331 324 328 332 329 333 333 332 345 1 12 18 23 26 31 39 43 44 48 55 55 54 61 74 82 88 92 96 109 124 130 142 154 158 167 179 189 204 222 228 222 208 194 191 197 205 206 205 204 204 210 214 218 228 232 232 244 253 246 239 236 222 212 217 227 232 233 231 229 228 227 227 225 225 226 226
338 339 341 339 335 334 335 335 335 334 336 339 332 325 331 335 330 328 323 320 331 339 342 358 6 10 23 37 47 52 55 55 54 55 57 67 81 92 98 99 109 121 121 132 159 169 183 210 216 208 216 221 219 206 197 200 212 221 224 224 221 221 223 225 228 232 234 236 243 248 243 235 231 225 215 211 215 220 223 226 225 225 225 226 228 230 231 232
334 337 337 334 333 332 332 333 334 332 330 331 330 329 332 334 332 327 320 316 323 326 327 335 335 340 1 20 41 53 53 45 43 46 51 61 72 83 89 88 99 121 127 133 158 180 196 214 222 204 197 203 209 204 205 216 228 238 244 244 240 239 240 240 240 241 242 243 245 247 244 237 233 232 228 223 218 214 214 217 221 224 226 228 230 232 234 236
328 331 332 331 331 330 329 330 330 330 328 326 327 331 330 331 332 329 322 316 315 320 323 323 326 332 338 350 23 44 49 52 48 40 41 51 59 65 72 75 80 97 128 150 164 176 182 182 183 181 175 176 189 202 212 224 239 250 251 249 250 249 248 248 247 247 247 249 250 251 252 250 245 239 236 233 230 225 221 220 223 226 229 232 235 237 240 242
325 323 326 327 328 328 327 327 327 326 325 324 325 326 322 320 319 318 317 314 310 314 318 318 322 330 330 334 351 3 22 86 90 74 57 54 56 60 63 70 73 69 67 139 161 162 163 165 170 175 179 181 186 196 209 219 246 257 248 246 248 248 249 252 252 253 255 255 255 257 259 257 251 247 245 243 242 241 237 235 235 235 236 238 240 242 243 244
Height
3115 3114 3113 3112 3110 3109 3108 3107 3106 3105 3104 3103 3102 3101 3100 3099 3098 3097 3096 3095 3094 3094 3093 3092 3092 3091 3091 3090 3090 3090 3090 3090 3089 3089 3089 3089 3090 3089 3090 3090 3091 3091 3092 3093 3094 3095 3096 3097 3099 3102 3105 3107 3109 3112 3114 3115 3117 3119 3119 3119 3118 3118 3120 3123 3128 3133 3134 3136 3138 3140 3142 3144 3145 3147 3148 3149 3150 3151 3152 3154 3155 3156 3158 3159 3160 3160 3160 3161
3113 3112 3111 3110 3108 3107 3106 3105 3104 3103 3102 3101 3100 3099 3097 3096 3095 3094 3093 3092 3091 3091 3090 3089 3089 3088 3088 3087 3087 3088 3087 3087 3087 3086 3086 3086 3086 3086 3086 3087 3088 3088 3089 3089 3091 3092 3093 3094 3095 3098 3101 3103 3105 3108 3110 3112 3114 3114 3115 3115 3114 3116 3119 3123 3128 3132 3134 3134 3136 3138 3140 3142 3143 3145 3146 3147 3148 3150 3151 3152 3153 3155 3156 3158 3159 3159 3159 3160
3111 3110 3109 3107 3106 3105 3104 3103 3102 3101 3099 3098 3097 3096 3095 3094 3093 3092 3090 3089 3088 3088 3087 3086 3085 3085 3084 3084 3084 3084 3083 3083 3083 3083 3083 3083 3082 3082 3083 3083 3084 3085 3086 3086 3087 3089 3090 3091 3092 3094 3098 3100 3101 3104 3106 3108 3110 3110 3112 3112 3111 3115 3119 3122 3126 3130 3132 3132 3134 3136 3138 3140 3142 3143 3144 3145 3147 3148 3149 3150 3151 3153 3154 3156 3157 3158 3158 3159
3108 3107 3106 3105 3104 3103 3102 3101 3100 3098 3097 3096 3095 3094 3093 3092 3090 3089 3088 3087 3086 3085 3084 3082 3082 3081 3080 3080 3080 3080 3080 3079 3079 3079 3079 3079 3078 3078 3079 3080 3081 3082 3083 3083 3084 3085 3087 3088 3089 3091 3094 3096 3098 3100 3103 3105 3106 3107 3108 3108 3110 3114 3116 3120 3124 3127 3130 3131 3132 3134 3136 3138 3140 3141 3142 3143 3144 3145 3146 3148 3150 3151 3152 3154 3155 3156 3156 3156
3106 3105 3104 3103 3102 3100 3099 3098 3097 3096 3095 3094 3092 3091 3090 3089 3087 3086 3085 3083 3083 3082 3080 3079 3078 3077 3077 3077 3077 3077 3076 3075 3075 3075 3075 3075 3075 3076 3076 3077 3078 3079 3080 3080 3081 3082 3083 3085 3086 3088 3090 3093 3095 3096 3099 3102 3103 3103 3104 3106 3109 3112 3114 3117 3121 3125 3128 3129 3130 3132 3133 3135 3137 3139 3140 3141 3142 3143 3144 3146 3147 3148 3149 3150 3151 3152 3153 3154
3104 3103 3102 3101 3099 3098 3097 3096 3095 3093 3092 3091 3090 3088 3087 3086 3084 3083 3081 3080 3079 3078 3077 3076 3075 3074 3074 3074 3073 3073 3073 3072 3071 3071 3071 3072 3073 3074 3074 3075 3076 3076 3077 3077 3078 3079 3080 3082 3083 3084 3086 3089 3092 3093 3095 3098 3099 3100 3101 3104 3107 3110 3112 3114 3118 3122 3125 3127 3129 3130 3131 3133 3135 3137 3138 3140 3141 3141 3142 3143 3144 3145 3146 3147 3148 3150 3152 3153
3102 3101 3100 3099 3098 3097 3095 3094 3093 3091 3090 3089 3087 3086 3084 3083 3081 3080 3078 3077 3076 3075 3074 3073 3072 3071 3071 3071 3070 3070 3070 3069 3069 3068 3069 3070 3071 3071 3072 3072 3073 3073 3074 3075 3075 3076 3077 3079 3080 3081 3083 3086 3088 3090 3092 3094 3096 3096 3098 3102 3104 3107 3109 3112 3116 3119 3122 3124 3126 3128 3129 3131 3133 3135 3136 3137 3137 3138 3140 3141 3142 3142 3144 3145 3146 3148 3150 3151
3100 3099 3098 3097 3096 3095 3093 3092 3091 3089 3088 3087 3085 3084 3082 3081 3079 3077 3076 3074 3073 3072 3071 3070 3069 3069 3068 3068 3067 3067 3067 3067 3067 3066 3067 3068 3069 3069 3069 3070 3071 3072 3072 3072 3073 3073 3075 3076 3077 3078 3080 3083 3085 3086 3089 3091 3093 3093 3095 3099 3102 3105 3107 3110 3114 3117 3119 3122 3124 3126 3127 3129 3131 3133 3134 3134 3134 3136 3138 3139 3140 3140 3142 3142 3143 3146 3148 3150
3099 3098 3097 3095 3094 3093 3091 3090 3089 3088 3086 3085 3083 3082 3080 3078 3077 3075 3073 3072 3071 3069 3068 3067 3066 3066 3065 3065 3065 3065 3064 3064 3064 3064 3065 3066 3066 3067 3068 3069 3069 3070 3070 3071 3071 3072 3073 3074 3075 3076 3077 3080 3082 3083 3086 3087 3089 3091 3093 3096 3099 3102 3105 3108 3111 3114 3117 3119 3121 3123 3124 3126 3129 3131 3132 3131 3132 3134 3136 3137 3138 3139 3140 3140 3142 3145 3147 3148
3098 3096 3095 3094 3093 3091 3090 3089 3087 3086 3085 3083 3082 3080 3078 3076 3075 3073 3072 3070 3069 3068 3066 3065 3064 3064 3063 3062 3062 3062 3062 3061 3062 3063 3063 3064 3064 3066 3067 3067 3068 3068 3069 3069 3070 3070 3071 3072 3073 3074 3076 3078 3079 3081 3083 3084 3086 3088 3090 3092 3095 3099 3102 3105 3109 3112 3114 3116 3118 3120 3122 3124 3126 3129 3130 3129 3129 3132 3133 3134 3135 3136 3137 3138 3141 3144 3145 3146
3096 3095 3094 3093 3091 3090 3088 3087 3086 3085 3083 3081 3080 3078 3077 3075 3073 3072 3071 3069 3068 3066 3065 3063 3062 3061 3061 3060 3060 3059 3059 3059 3060 3061 3061 3062 3063 3064 3065 3066 3066 3067 3067 3068 3068 3069 3070 3071 3072 3073 3074 3075 3077 3079 3081 3082 3084 3085 3087 3089 3092 3096 3099 3102 3106 3109 3111 3113 3115 3118 3120 3121 3123 3126 3128 3128 3128 3129 3130 3131 3132 3133 3135 3137 3139 3142 3143 3145
3095 3094 3092 3091 3090 3088 3087 3086 3084 3083 3081 3080 3078 3077 3075 3073 3072 3071 3069 3068 3066 3064 3063 3061 3060 3059 3058 3058 3057 3056 3057 3057 3058 3059 3060 3061 3062 3063 3064 3065 3065 3065 3066 3066 3067 3068 3068 3069 3070 3071 3073 3073 3075 3077 3078 3079 3081 3084 3085 3087 3090 3094 3096 3098 3102 3105 3108 3110 3111 3115 3118 3119 3120 3123 3125 3126 3126 3126 3127 3129 3130 3131 3133 3135 3136 3139 3141 3143
3094 3092 3091 3090 3088 3087 3086 3084 3083 3081 3080 3078 3077 3075 3074 3072 3071 3070 3068 3066 3065 3063 3062 3061 3059 3058 3057 3057 3056 3055 3056 3057 3057 3058 3059 3060 3061 3062 3063 3063 3064 3064 3065 3065 3066 3067 3067 3068 3069 3069 3071 3072 3073 3075 3076 3077 3079 3081 3084 3085 3088 3091 3091 3094 3099 3102 3104 3107 3109 3113 3117 3116 3116 3119 3120 3122 3123 3124 3125 3127 3128 3129 3131 3132 3134 3137 3139 3141
3093 3091 3090 3089 3087 3086 3084 3083 3081 3080 3078 3077 3075 3074 3072 3071 3070 3068 3067 3065 3063 3062 3061 3060 3058 3057 3057 3056 3055 3055 3056 3056 3056 3056 3057 3058 3060 3060 3061 3062 3062 3063 3064 3064 3064 3065 3066 3067 3068 3068 3069 3070 3071 3073 3074 3075 3076 3079 3083 3083 3085 3087 3087 3091 3096 3099 3101 3104 3107 3110 3112 3110 3110 3113 3116 3118 3120 3122 3124 3125 3126 3128 3129 3131 3133 3135 3137 3139
3092 3091 3089 3087 3086 3084 3083 3081 3080 3079 3077 3075 3074 3072 3071 3069 3068 3066 3065 3063 3062 3061 3059 3058 3057 3056 3055 3055 3054 3054 3054 3054 3054 3055 3056 3057 3058 3058 3059 3060 3061 3062 3062 3063 3063 3064 3065 3065 3066 3067 3068 3069 3070 3071 3073 3074 3074 3077 3080 3080 3081 3083 3084 3089 3093 3096 3099 3100 3103 3104 3104 3105 3106 3108 3112 3115 3117 3120 3122 3123 3125 3126 3127 3129 3131 3133 3135 3138
3092 3090 3088 3086 3085 3083 3081 3080 3079 3077 3076 3074 3072 3071 3069 3068 3066 3064 3063 3062 3061 3059 3058 3057 3055 3054 3053 3053 3053 3053 3053 3053 3053 3053 3054 3055 3056 3057 3057 3058 3059 3060 3061 3061 3062 3062 3063 3064 3064 3065 3066 3067 3068 3070 3071 3072 3072 3074 3076 3076 3077 3079 3082 3087 3090 3094 3097 3097 3099 3099 3099 3103 3105 3105 3108 3112 3114 3117 3120 3122 3123 3123 3125 3127 3129 3131 3133 3135
3091 3090 3088 3086 3084 3082 3080 3079 3077 3076 3074 3073 3071 3070 3068 3067 3064 3063 3062 3061 3060 3058 3057 3056 3054 3053 3052 3051 3051 3051 3051 3051 3051 3052 3053 3053 3054 3055 3055 3056 3057 3058 3059 3060 3060 3061 3061 3062 3063 3064 3065 3066 3067 3068 3069 3070 3070 3071 3073 3074 3075 3077 3079 3083 3087 3091 3094 3094 3094 3094 3096 3101 3103 3104 3107 3109 3112 3115 3118 3120 3122 3123 3124 3127 3127 3128 3131 3134
3091 3089 3087 3085 3083 3081 3079 3078 3076 3075 3073 3072 3070 3069 3067 3065 3063 3062 3061 3060 3059 3058 3056 3055 3054 3052 3051 3051 3050 3050 3050 3050 3050 3051 3051 3052 3052 3053 3053 3054 3055 3056 3057 3058 3058 3059 3060 3060 3061 3062 3063 3064 3065 3066 3066 3067 3068 3070 3071 3072 3073 3075 3077 3081 3083 3085 3088 3090 3090 3091 3094 3097 3100 3102 3105 3108 3110 3113 3116 3118 3120 3122 3124 3126 3126 3126 3128 3131
3090 3089 3086 3084 3082 3080 3078 3077 3075 3074 3072 3071 3069 3068 3066 3064 3063 3061 3060 3059 3058 3057 3055 3054 3053 3052 3051 3050 3049 3049 3048 3049 3049 3049 3049 3050 3051 3051 3051 3052 3053 3054 3054 3055 3056 3057 3058 3059 3059 3059 3060 3061 3062 3063 3064 3066 3068 3068 3069 3070 3071 3073 3076 3079 3080 3080 3083 3087 3089 3089 3091 3095 3098 3101 3104 3107 3109 3111 3114 3116 3118 3122 3123 3124 3125 3126 3128 3129
3090 3088 3086 3084 3081 3080 3078 3076 3075 3073 3071 3069 3068 3066 3065 3064 3062 3061 3060 3059 3058 3057 3055 3054 3052 3051 3050 3049 3048 3048 3047 3047 3047 3047 3047 3048 3048 3049 3050 3051 3051 3052 3052 3053 3054 3055 3056 3056 3056 3056 3058 3060 3061 3062 3064 3066 3066 3066 3068 3070 3071 3073 3075 3076 3076 3078 3081 3084 3088 3089 3091 3095 3097 3100 3103 3105 3107 3109 3111 3114 3116 3120 3122 3124 3124 3126 3128 3128
3089 3088 3085 3083 3081 3079 3078 3076 3074 3072 3070 3068 3067 3066 3064 3063 3062 3060 3059 3058 3057 3056 3054 3053 3051 3050 3049 3048 3047 3046 3046 3045 3045 3045 3045 3045 3046 3047 3048 3049 3049 3050 3050 3052 3052 3053 3054 3053 3053 3054 3057 3059 3060 3062 3063 3065 3065 3065 3067 3068 3071 3071 3072 3073 3074 3077 3080 3083 3087 3089 3092 3095 3097 3099 3102 3103 3105 3108 3110 3112 3114 3117 3120 3122 3123 3125 3126 3128
3089 3087 3085 3083 3081 3079 3077 3075 3073 3071 3069 3068 3067 3066 3064 3063 3062 3060 3059 3058 3057 3056 3054 3052 3050 3049 3048 3047 3046 3045 3044 3044 3044 3043 3043 3043 3044 3045 3045 3046 3047 3048 3049 3050 3050 3051 3051 3049 3050 3053 3055 3057 3058 3060 3061 3062 3062 3064 3065 3067 3069 3067 3066 3071 3073 3075 3078 3082 3085 3089 3091 3095 3097 3099 3101 3102 3104 3107 3109 3110 3112 3115 3118 3120 3122 3123 3125 3127
3088 3086 3085 3083 3081 3079 3077 3075 3073 3071 3069 3067 3066 3066 3064 3063 3061 3060 3059 3058 3057 3056 3054 3052 3050 3048 3047 3046 3045 3044 3043 3042 3042 3041 3041 3042 3042 3042 3043 3044 3045 3046 3046 3047 3047 3048 3048 3047 3049 3051 3053 3054 3056 3057 3059 3060 3060 3061 3063 3064 3067 3065 3063 3067 3070 3072 3077 3081 3083 3087 3091 3094 3096 3099 3100 3102 3103 3105 3108 3110 3111 3114 3117 3119 3120 3122 3124 3126
3088 3086 3084 3083 3081 3079 3077 3075 3073 3071 3068 3067 3066 3065 3064 3062 3061 3059 3058 3057 3057 3056 3054 3051 3049 3047 3046 3045 3043 3042 3041 3041 3040 3040 3040 3040 3040 3041 3041 3042 3043 3043 3044 3045 3046 3046 3045 3046 3048 3050 3051 3052 3054 3055 3057 3058 3058 3059 3062 3063 3064 3064 3062 3064 3067 3071 3077 3081 3083 3086 3091 3094 3096 3098 3100 3101 3103 3105 3107 3109 3111 3113 3115 3117 3119 3121 3123 3124
3087 3085 3083 3082 3081 3079 3077 3075 3073 3070 3068 3067 3066 3065 3064 3062 3060 3059 3058 3057 3056 3055 3053 3051 3048 3047 3045 3044 3042 3041 3040 3039 3039 3038 3038 3038 3039 3039 3040 3040 3041 3041 3043 3044 3044 3043 3043 3046 3048 3048 3049 3051 3052 3053 3055 3056 3056 3058 3060 3061 3062 3063 3063 3063 3066 3069 3074 3080 3083 3085 3091 3096 3096 3097 3099 3100 3102 3104 3105 3108 3110 3112 3114 3116 3119 3121 3122 3123
3087 3085 3083 3081 3080 3079 3077 3075 3073 3070 3068 3067 3066 3065 3063 3061 3060 3058 3057 3056 3055 3054 3052 3050 3048 3047 3045 3043 3041 3039 3038 3037 3037 3037 3037 3037 3037 3038 3038 3039 3039 3040 3042 3043 3043 3042 3042 3045 3047 3048 3048 3049 3051 3052 3053 3055 3055 3057 3059 3060 3062 3063 3064 3064 3065 3068 3072 3077 3082 3084 3087 3093 3096 3096 3098 3099 3101 3103 3104 3106 3108 3111 3113 3116 3117 3119 3121 3122
3086 3085 3083 3081 3080 3078 3077 3075 3073 3070 3068 3067 3066 3064 3063 3061 3059 3058 3057 3055 3054 3053 3051 3049 3048 3046 3044 3042 3040 3038 3037 3036 3036 3035 3035 3035 3036 3036 3037 3037 3038 3039 3040 3041 3041 3039 3040 3044 3045 3047 3047 3048 3049 3050 3052 3055 3055 3056 3058 3061 3062 3063 3065 3065 3065 3068 3072 3076 3081 3083 3085 3089 3093 3095 3096 3098 3099 3101 3102 3104 3106 3109 3111 3113 3115 3117 3118 3119
3086 3085 3083 3081 3079 3078 3077 3075 3073 3071 3068 3066 3065 3063 3062 3061 3059 3058 3057 3056 3055 3052 3050 3049 3047 3046 3044 3041 3039 3037 3036 3035 3034 3033 3033 3034 3034 3035 3035 3035 3037 3038 3039 3039 3039 3038 3040 3042 3043 3046 3046 3046 3047 3049 3053 3055 3055 3056 3058 3061 3063 3065 3068 3068 3066 3068 3072 3076 3080 3083 3084 3088 3091 3093 3094 3096 3097 3098 3100 3102 3105 3107 3109 3111 3113 3115 3116 3118
3086 3085 3083 3081 3079 3078 3077 3075 3073 3071 3068 3066 3065 3063 3062 3060 3059 3057 3056 3056 3055 3052 3050 3048 3047 3045 3043 3041 3039 3036 3035 3034 3033 3032 3032 3032 3033 3033 3033 3034 3035 3036 3037 3037 3037 3038 3040 3041 3043 3045 3045 3045 3047 3050 3053 3054 3055 3058 3059 3061 3063 3066 3069 3069 3067 3068 3072 3076 3079 3081 3083 3086 3090 3091 3091 3093 3094 3095 3097 3100 3103 3106 3108 3110 3112 3114 3115 3117
3086 3085 3083 3081 3079 3078 3077 3075 3074 3071 3069 3067 3065 3063 3061 3061 3059 3057 3057 3056 3054 3052 3050 3048 3046 3044 3041 3039 3038 3035 3034 3033 3032 3031 3031 3031 3032 3032 3032 3033 3034 3035 3036 3036 3036 3038 3039 3040 3041 3043 3044 3045 3048 3050 3052 3053 3056 3058 3059 3059 3061 3065 3067 3068 3068 3068 3071 3076 3078 3080 3082 3084 3087 3089 3089 3091 3092 3094 3096 3098 3101 3104 3107 3109 3111 3113 3115 3117
3086 3085 3083 3081 3079 3078 3077 3075 3074 3072 3069 3067 3065 3063 3061 3061 3059 3058 3059 3057 3053 3051 3050 3048 3046 3044 3041 3038 3036 3034 3033 3032 3031 3030 3029 3029 3031 3031 3032 3033 3033 3034 3036 3036 3036 3037 3038 3039 3041 3042 3044 3046 3048 3049 3051 3053 3055 3057 3059 3059 3060 3064 3067 3069 3069 3070 3072 3075 3077 3080 3082 3084 3086 3088 3089 3091 3093 3095 3096 3098 3101 3103 3106 3108 3111 3112 3114 3116
3086 3085 3083 3081 3079 3078 3077 3075 3074 3072 3070 3068 3066 3063 3061 3061 3059 3060 3059 3056 3053 3052 3049 3048 3046 3043 3041 3038 3036 3034 3033 3032 3031 3030 3029 3029 3030 3031 3032 3032 3033 3034 3035 3035 3036 3037 3038 3039 3041 3042 3044 3045 3047 3049 3050 3053 3055 3057 3059 3059 3059 3063 3067 3069 3070 3072 3074 3076 3077 3080 3082 3085 3086 3088 3089 3091 3093 3095 3097 3099 3101 3104 3106 3108 3110 3112 3114 3116
3087 3085 3083 3081 3080 3078 3076 3075 3074 3072 3070 3069 3067 3063 3062 3061 3061 3061 3059 3056 3054 3052 3049 3048 3046 3044 3042 3039 3036 3035 3034 3033 3032 3031 3030 3030 3030 3031 3031 3032 3033 3034 3034 3034 3036 3037 3039 3040 3041 3042 3044 3045 3047 3048 3049 3052 3054 3056 3058 3059 3060 3062 3065 3069 3071 3073 3075 3077 3079 3080 3082 3084 3086 3087 3089 3090 3092 3094 3096 3098 3100 3102 3105 3107 3109 3111 3113 3115
3087 3085 3083 3081 3080 3078 3077 3075 3074 3072 3071 3070 3068 3064 3062 3063 3063 3061 3059 3057 3055 3053 3050 3049 3047 3046 3043 3039 3037 3035 3034 3033 3033 3032 3031 3031 3031 3031 3031 3032 3033 3033 3034 3035 3036 3037 3039 3040 3040 3041 3043 3044 3046 3048 3050 3052 3055 3057 3058 3059 3060 3060 3062 3066 3070 3071 3073 3076 3079 3081 3083 3083 3084 3085 3087 3088 3090 3092 3093 3096 3098 3100 3102 3104 3107 3109 3111 3112
3088 3086 3084 3082 3080 3079 3077 3076 3074 3073 3071 3070 3068 3065 3064 3064 3064 3062 3059 3057 3055 3053 3051 3049 3048 3046 3044 3041 3038 3036 3035 3034 3033 3033 3032 3031 3031 3031 3031 3031 3032 3033 3034 3035 3036 3037 3038 3039 3039 3041 3043 3045 3047 3049 3052 3055 3057 3058 3059 3060 3060 3060 3061 3065 3068 3069 3071 3076 3080 3082 3081 3081 3082 3083 3086 3087 3088 3089 3091 3094 3095 3097 3099 3101 3103 3106 3108 3109
3088 3086 3084 3082 3081 3079 3078 3076 3075 3073 3071 3070 3068 3066 3065 3065 3064 3062 3060 3058 3055 3053 3051 3050 3048 3046 3044 3042 3040 3037 3035 3035 3034 3033 3032 3032 3032 3031 3031 3031 3031 3033 3034 3035 3036 3037 3038 3039 3040 3042 3044 3046 3048 3051 3054 3057 3058 3059 3060 3060 3060 3062 3063 3065 3068 3071 3073 3077 3081 3081 3080 3080 3081 3082 3083 3085 3086 3087 3089 3091 3093 3095 3097 3099 3100 3103 3105 3106
3088 3086 3084 3083 3082 3080 3078 3077 3075 3073 3072 3071 3069 3067 3066 3065 3064 3062 3061 3058 3056 3054 3052 3050 3049 3047 3045 3043 3041 3039 3037 3035 3035 3034 3033 3033 3033 3032 3032 3032 3033 3033 3034 3036 3037 3037 3038 3039 3042 3044 3045 3048 3050 3053 3056 3058 3059 3059 3060 3061 3061 3063 3065 3065 3069 3074 3076 3079 3081 3081 3080 3080 3080 3080 3079 3081 3082 3083 3085 3087 3090 3092 3094 3096 3098 3100 3102 3103
3088 3086 3085 3083 3082 3081 3079 3078 3076 3074 3073 3072 3069 3068 3067 3066 3064 3063 3061 3059 3058 3056 3054 3052 3050 3049 3046 3044 3042 3041 3038 3037 3036 3035 3034 3034 3034 3033 3033 3033 3033 3034 3035 3036 3037 3038 3039 3041 3045 3046 3047 3050 3053 3055 3057 3058 3059 3060 3060 3061 3062 3063 3064 3065 3068 3072 3074 3079 3081 3080 3080 3079 3077 3076 3075 3077 3078 3080 3083 3085 3087 3088 3090 3092 3094 3096 3099 3101
3088 3086 3085 3084 3083 3081 3080 3079 3077 3075 3074 3073 3070 3069 3068 3066 3065 3064 3062 3061 3059 3057 3055 3053 3052 3050 3048 3046 3045 3042 3040 3039 3038 3037 3036 3035 3035 3035 3034 3033 3034 3034 3036 3038 3038 3040 3040 3041 3046 3049 3050 3052 3054 3056 3057 3057 3058 3060 3061 3061 3061 3061 3063 3064 3066 3068 3071 3077 3080 3080 3081 3076 3072 3073 3074 3075 3077 3079 3081 3082 3084 3085 3088 3090 3092 3094 3097 3099
3088 3087 3085 3084 3083 3082 3081 3079 3077 3076 3075 3073 3071 3070 3069 3067 3066 3064 3063 3062 3060 3058 3056 3055 3053 3052 3050 3049 3047 3045 3043 3042 3040 3039 3038 3037 3036 3036 3036 3035 3035 3036 3038 3039 3040 3041 3042 3041 3045 3050 3052 3053 3055 3056 3057 3058 3058 3059 3060 3060 3060 3060 3062 3064 3067 3067 3069 3073 3076 3079 3078 3072 3068 3070 3072 3075 3077 3078 3079 3080 3082 3085 3087 3088 3090 3093 3095 3098
3088 3086 3085 3083 3083 3082 3081 3080 3078 3077 3075 3074 3072 3071 3069 3068 3067 3065 3064 3063 3061 3059 3058 3056 3054 3053 3052 3050 3048 3047 3046 3044 3043 3041 3040 3039 3038 3038 3038 3038 3038 3039 3040 3042 3042 3043 3044 3043 3045 3050 3053 3054 3055 3057 3057 3058 3059 3059 3060 3060 3060 3061 3061 3063 3066 3067 3067 3069 3071 3073 3072 3067 3067 3068 3069 3072 3075 3076 3078 3080 3082 3084 3086 3087 3089 3092 3095 3096
3088 3086 3085 3084 3083 3082 3081 3080 3078 3077 3076 3075 3073 3072 3070 3069 3068 3066 3065 3064 3062 3060 3059 3058 3056 3055 3053 3052 3050 3049 3047 3046 3045 3044 3043 3042 3040 3040 3041 3041 3041 3042 3042 3043 3044 3044 3046 3047 3048 3050 3053 3055 3057 3058 3058 3058 3059 3060 3060 3061 3061 3062 3062 3062 3064 3064 3065 3067 3068 3070 3068 3065 3066 3068 3068 3070 3073 3075 3078 3080 3081 3083 3084 3086 3089 3091 3092 3093
3088 3087 3085 3084 3083 3082 3081 3080 3078 3077 3076 3075 3074 3072 3071 3070 3068 3067 3066 3064 3063 3061 3060 3059 3058 3056 3055 3053 3052 3050 3049 3048 3047 3046 3045 3044 3043 3043 3043 3044 3044 3045 3045 3044 3045 3046 3048 3050 3051 3053 3056 3057 3058 3059 3059 3058 3059 3060 3061 3061 3062 3063 3063 3063 3063 3063 3064 3065 3067 3069 3068 3064 3064 3066 3067 3069 3071 3073 3075 3077 3080 3082 3083 3085 3087 3089 3090 3091
3088 3087 3085 3084 3083 3082 3081 3080 3079 3078 3077 3076 3075 3073 3072 3070 3069 3068 3067 3065 3064 3063 3061 3060 3059 3058 3056 3055 3053 3052 3050 3049 3049 3048 3047 3046 3046 3046 3046 3046 3046 3046 3046 3046 3046 3047 3048 3050 3051 3053 3057 3059 3059 3059 3059 3059 3059 3060 3061 3062 3062 3063 3064 3064 3063 3064 3065 3065 3066 3067 3067 3063 3063 3064 3066 3067 3069 3071 3073 3075 3077 3079 3081 3083 3085 3087 3088 3089
3089 3087 3086 3085 3083 3082 3081 3080 3079 3078 3077 3076 3075 3074 3073 3071 3070 3068 3067 3066 3065 3063 3062 3061 3060 3059 3058 3056 3055 3053 3052 3050 3050 3049 3049 3048 3048 3048 3047 3047 3048 3048 3048 3048 3049 3049 3049 3050 3052 3053 3054 3056 3056 3056 3056 3056 3058 3059 3060 3061 3061 3062 3063 3063 3064 3064 3065 3065 3066 3066 3065 3063 3063 3064 3065 3067 3068 3070 3072 3074 3075 3077 3079 3081 3083 3085 3085 3086
3089 3087 3086 3085 3084 3082 3081 3080 3079 3078 3077 3076 3076 3075 3074 3072 3071 3069 3068 3066 3065 3064 3063 3062 3061 3060 3059 3058 3056 3055 3053 3052 3052 3051 3051 3050 3049 3049 3049 3049 3049 3050 3050 3050 3051 3051 3051 3052 3053 3054 3054 3054 3053 3053 3054 3055 3057 3058 3059 3060 3060 3061 3062 3063 3063 3063 3064 3065 3065 3064 3064 3064 3064 3065 3065 3067 3068 3069 3071 3072 3074 3075 3077 3078 3080 3081 3082 3084
3089 3088 3086 3085 3084 3083 3082 3080 3079 3078 3077 3076 3076 3075 3074 3073 3072 3070 3069 3067 3066 3065 3063 3062 3061 3060 3059 3058 3057 3056 3055 3054 3053 3053 3052 3051 3051 3050 3050 3050 3051 3051 3052 3052 3052 3052 3053 3054 3054 3055 3055 3055 3054 3054 3055 3055 3057 3058 3059 3059 3060 3061 3062 3063 3063 3063 3063 3064 3063 3063 3064 3064 3065 3065 3066 3067 3068 3069 3070 3072 3073 3075 3076 3077 3078 3079 3080 3081
3089 3088 3087 3086 3085 3083 3082 3081 3079 3078 3077 3076 3076 3075 3074 3074 3073 3071 3070 3068 3067 3065 3064 3063 3062 3061 3060 3058 3057 3056 3056 3055 3055 3054 3054 3053 3052 3052 3051 3052 3052 3052 3053 3053 3053 3054 3055 3056 3056 3056 3056 3056 3056 3056 3056 3056 3057 3058 3059 3060 3060 3061 3062 3062 3063 3063 3063 3063 3063 3063 3063 3064 3064 3065 3066 3067 3069 3070 3071 3072 3073 3074 3075 3075 3076 3077 3078 3079
3089 3087 3086 3085 3084 3083 3082 3081 3079 3078 3077 3076 3075 3075 3074 3074 3073 3072 3071 3069 3068 3066 3065 3064 3063 3061 3060 3059 3057 3056 3056 3055 3055 3055 3055 3054 3054 3054 3053 3053 3053 3053 3053 3053 3054 3055 3055 3056 3056 3056 3056 3056 3057 3057 3057 3058 3058 3059 3059 3060 3060 3061 3061 3062 3062 3062 3063 3063 3063 3063 3063 3063 3064 3064 3065 3066 3067 3068 3069 3070 3070 3071 3072 3073 3074 3075 3076 3077
3088 3087 3086 3085 3084 3083 3082 3080 3079 3078 3077 3076 3075 3074 3073 3073 3073 3072 3072 3070 3069 3068 3067 3065 3064 3062 3061 3060 3058 3057 3056 3055 3055 3055 3055 3054 3054 3054 3054 3054 3054 3054 3054 3054 3054 3054 3055 3055 3056 3056 3056 3057 3057 3058 3058 3059 3059 3059 3059 3059 3059 3060 3060 3060 3061 3061 3061 3061 3062 3062 3062 3062 3063 3063 3064 3064 3065 3066 3066 3067 3068 3069 3070 3071 3072 3073 3074 3075
3088 3087 3085 3084 3083 3082 3081 3080 3079 3078 3077 3076 3075 3074 3073 3072 3072 3071 3071 3071 3070 3069 3068 3066 3065 3064 3062 3061 3059 3058 3057 3056 3055 3055 3054 3054 3054 3054 3054 3054 3055 3055 3055 3055 3055 3054 3054 3054 3055 3055 3056 3056 3057 3057 3058 3058 3058 3058 3057 3057 3058 3058 3058 3058 3059 3059 3059 3060 3060 3060 3060 3061 3062 3062 3063 3063 3064 3065 3066 3066 3067 3068 3069 3070 3071 3072 3073 3074
3088 3086 3085 3084 3083 3082 3081 3080 3079 3078 3077 3077 3076 3074 3073 3072 3071 3070 3070 3070 3069 3069 3068 3067 3066 3065 3064 3062 3061 3059 3058 3057 3055 3055 3054 3054 3054 3054 3054 3054 3054 3055 3055 3055 3055 3055 3055 3054 3055 3055 3055 3055 3056 3056 3056 3057 3057 3055 3053 3054 3055 3055 3056 3056 3056 3056 3057 3058 3058 3058 3059 3060 3060 3061 3061 3062 3063 3064 3065 3066 3067 3067 3068 3069 3070 3071 3071 3072